Philip, SD

12:37 PM MST on February 08, 2016 (GMT -0700)
Philip

Weather History for KPHP - October, 2011

Change the Weather History Date:

Saturday, October 1, 2011

  Actual Average Record
Temperature  
Mean Temperature 68 °F 55 °F  
Max Temperature 91 °F 70 °F 97 °F (1953)
Min Temperature 45 °F 40 °F 19 °F (1999)
Degree Days  
Heating Degree Days 0 10  
Month to date heating degree days 0 10  
Since 1 July heating degree days 119 196  
Cooling Degree Days 3 0  
Month to date cooling degree days 3 0  
Year to date cooling degree days 804 814  
Growing Degree Days 18 (Base 50)    
Moisture  
Dew Point 38 °F    
Average Humidity 40    
Maximum Humidity 65    
Minimum Humidity 15    
Precipitation  
Precipitation 0.00 in 0.05 in 0.78 in (1982)
Month to date precipitation 0.00 0.05  
Year to date precipitation 15.08 14.92  
Sea Level Pressure  
Sea Level Pressure 29.96 in    
Wind  
Wind Speed 5 mph (SE)    
Max Wind Speed 13 mph    
Max Gust Speed 21 mph    
Visibility 10 miles    
Events      
T = Trace of Precipitation, MM = Missing Value Source: NWS Daily Summary

Daily Weather History Graph

Daily Weather History Graph

Search for Another Location

Airport or City:

Trip Planner

Search our weather history database for the weather conditions in past years. The results will help you decide how hot, cold, wet, or windy it might be!

Date:

Astronomy

Oct. 01, 2011 Rise Set
Actual Time 6:43 AM MDT 6:27 PM MDT
Civil Twilight 6:15 AM MDT 6:56 PM MDT
Nautical Twilight 5:41 AM MDT 7:29 PM MDT
Astronomical Twilight 5:07 AM MDT 8:03 PM MDT
Moon 12:04 PM MDT (10/1) 9:14 PM MDT (10/1)
Length of Visible Light 12h 41m
Length of Day
11h 43m
Waxing Crescent, 25% of the Moon is Illuminated
Oct 1
Waxing Crescent
Oct 3
First Quarter
Oct 11
Full
Oct 19
Last Quarter
Oct 26
New

Hourly Weather History & Observations

Time (MDT) Temp. Dew Point Humidity Pressure Visibility Wind Dir Wind Speed Gust Speed Precip Events Conditions
12:55 AM 50.0 °F 35.1 °F 57% 29.98 in 10.0 mi East 4.6 mph - N/A   Clear
1:55 AM 51.1 °F 36.0 °F 56% 29.97 in 10.0 mi ESE 6.9 mph - N/A   Clear
2:55 AM 46.9 °F 35.1 °F 63% 29.97 in 10.0 mi East 6.9 mph - N/A   Clear
3:55 AM 46.9 °F 35.1 °F 63% 29.97 in 10.0 mi East 3.5 mph - N/A   Clear
4:55 AM 46.9 °F 35.1 °F 63% 29.97 in 10.0 mi ESE 4.6 mph - N/A   Clear
5:55 AM 46.9 °F 35.1 °F 63% 29.98 in 10.0 mi Calm Calm - N/A   Clear
6:55 AM 46.9 °F 35.1 °F 63% 30.01 in 10.0 mi Calm Calm - N/A   Clear
7:55 AM 51.1 °F 37.9 °F 61% 30.02 in 10.0 mi Calm Calm - N/A   Clear
8:55 AM 57.9 °F 37.9 °F 47% 30.01 in 10.0 mi Calm Calm - N/A   Clear
9:55 AM 66.0 °F 39.0 °F 37% 30.01 in 10.0 mi Calm Calm - N/A   Clear
10:55 AM 75.0 °F 39.0 °F 27% 29.99 in 10.0 mi Variable 3.5 mph - N/A   Clear
11:55 AM 79.0 °F 39.0 °F 24% 29.98 in 10.0 mi South 5.8 mph - N/A   Clear
12:55 PM 84.0 °F 39.0 °F 20% 29.96 in 10.0 mi SSE 6.9 mph - N/A   Clear
1:55 PM 87.1 °F 39.0 °F 18% 29.94 in 10.0 mi SSE 10.4 mph - N/A   Clear
2:55 PM 90.0 °F 39.0 °F 17% 29.93 in 10.0 mi SE 9.2 mph - N/A   Clear
3:55 PM 91.0 °F 37.0 °F 15% 29.91 in 10.0 mi SSE 5.8 mph - N/A   Clear
4:55 PM 90.0 °F 37.0 °F 15% 29.91 in 10.0 mi ESE 6.9 mph - N/A   Clear
5:55 PM 84.9 °F 39.0 °F 20% 29.91 in 10.0 mi ESE 5.8 mph - N/A   Clear
6:55 PM 70.0 °F 39.9 °F 33% 29.93 in 10.0 mi East 5.8 mph - N/A   Clear
7:55 PM 66.0 °F 41.0 °F 40% 29.94 in 10.0 mi East 5.8 mph - N/A   Clear
8:55 PM 66.9 °F 41.0 °F 39% 29.94 in 10.0 mi SE 3.5 mph - N/A   Clear
9:55 PM 69.1 °F 39.9 °F 35% 29.94 in 10.0 mi SSW 8.1 mph - N/A   Clear
10:55 PM 70.0 °F 39.0 °F 32% 29.93 in 10.0 mi SSW 11.5 mph 18.4 mph N/A   Clear
11:55 PM 66.9 °F 39.0 °F 36% 29.93 in 10.0 mi SSW 8.1 mph - N/A   Clear